Regional Weather Roundup
Issued by NWS Memphis, TN

Home | Current Version | Previous Version | Text Only | Print | Product List | Glossary On
Versions: 1 2 3 4 5 6 7 8 9 10 11 12 13 14 15 16 17 18 19 20 21 22 23 24 25 26 27 28 29 30 31 32 33 34 35 36 37 38 39 40 41 42 43 44 45 46 47 48 49 50
810
ASUS44 KMEG 101300
RWRMEG
MEMPHIS CWA HOURLY WEATHER ROUNDUP
NATIONAL WEATHER SERVICE MEMPHIS TN
700 AM CST WED FEB 10 2016

...WEST TENNESSEE...

CITY           SKY/WX    TMP DP  RH WIND       PRES   REMARKS
MEMPHIS INTL   PTCLDY    24   8  50 NW12      30.27R WCI  13
NWS MEMPHIS      N/A     23 N/A N/A MISG        N/A
JACKSON        CLEAR     20   9  62 NW7       30.23R WCI  11
DYERSBURG      CLEAR     21   9  58 NW8       30.26R WCI  12
UNION CITY     CLEAR     18   7  62 NW5       30.20S WCI  11
PARIS          CLEAR     14   3  62 VRB5      30.18F WCI   6


...EASTERN ARKANSAS...

CITY           SKY/WX    TMP DP  RH WIND       PRES   REMARKS
JONESBORO      CLEAR     22   9  57 W6        30.28R WCI  14
WEST MEMPHIS   CLEAR     24  12  60 NW7       30.29R WCI  16
BATESVILLE     CLEAR     23   7  50 W3        30.29S
WALNUT RIDGE   PTCLDY    19   7  58 W6        30.29S WCI  11
BLYTHEVILLE    CLEAR     21  10  62 NW8       30.27R WCI  11
SEARCY         CLEAR     19  15  84 CALM      30.33S
STUTTGART      CLEAR     27  10  50 NW9       30.33R WCI  17
PINE BLUFF     CLEAR     27  10  49 NW5       30.34R WCI  22
MONTICELLO     CLEAR     26  13  57 W3        30.33R


...NORTH MISSISSIPPI...

CITY           SKY/WX    TMP DP  RH WIND       PRES   REMARKS
TUPELO         PTCLDY    23  12  62 W3        30.27R
TUNICA         CLEAR     25  12  58 NW8       30.32R WCI  16
GREENWOOD      CLEAR     21  17  84 SW3       30.31R
GOLDEN TRIANGL CLEAR     25  10  54 W7        30.21F WCI  17


...SOUTHEAST MISSOURI...

CITY           SKY/WX    TMP DP  RH WIND       PRES   REMARKS
WEST PLAINS    CLEAR     16   6  65 CALM      30.17F
POPLAR BLUFF   CLEAR     18   6  59 SW3       30.23R
CAPE GIRARDEAU PTCLDY    12   6  77 W7        30.22R WCI   1


...NORTHWEST ALABAMA...

CITY           SKY/WX    TMP DP  RH WIND       PRES   REMARKS
MUSCLE SHOALS  CLEAR     21  12  68 NW9       30.22R WCI  11


...MIDDLE TENNESSEE...

CITY           SKY/WX    TMP DP  RH WIND       PRES   REMARKS
NASHVILLE      PTCLDY    20   9  62 NW9       30.16R WCI   9
CLARKSVILLE    PTCLDY    15   8  73 W5        30.16F WCI   8
COLUMBIA       CLOUDY    21  18  86 W8        30.15R WCI  12


...WESTERN KENTUCKY...

CITY           SKY/WX    TMP DP  RH WIND       PRES   REMARKS
PADUCAH        CLEAR     17   5  59 W3        30.19S
FORT CAMPBELL  PTCLDY    14   7  75 NW5       30.16S WCI   6


...CENTRAL ARKANSAS...

CITY           SKY/WX    TMP DP  RH WIND       PRES   REMARKS
LITTLE ROCK    CLEAR     28   8  43 W6        30.34R WCI  22


SKY/WX REPORTED AS FAIR MEANS FEW OR NO CLOUDS BELOW
12 THOUSAND FEET.





USA.gov is the U.S. government's official web portal to all federal, state and local government web resources and services.